Tracking 30466 objects as of 17-May-2025
HD Live streaming from Space Station
objects crossing your sky now

THORAD AGENA D DEB

Track THORAD AGENA D DEB now!
10-day predictions


NORAD ID: 4993
Int'l Code: 1970-025HP
Perigee: 837.0 km
Apogee: 958.0 km
Inclination: 100.2 °
Period: 102.8 minutes
Semi major axis: 7268 km
RCS: 0.013 m2 (small)
Launch date: April 8, 1970
Source: United States (US)
Launch site: AIR FORCE WESTERN TEST RANGE (AFWTR)

Note: This is SATELLITE DEBRIS
Your satellite tracking list
Your tracking list is empty




NASA's NSSDC Master Catalog

Two Line Element Set (TLE):
1 04993U 70025HP  25136.78503807  .00000866  00000-0  59596-3 0  9991
2 04993 100.1693 234.7403 0083250 329.1577  30.4708 14.00995777783203
Source of the keplerian elements: AFSPC